Regional Weather Roundup
Issued by NWS

Home | Current Version | Previous Version | Graphics & Text | Print | Product List | Glossary On
Versions: 1 2 3 4 5 6 7 8 9 10 11 12 13 14 15 16 17 18 19 20 21 22 23 24 25 26 27 28 29 30 31 32 33 34 35 36 37 38 39 40 41 42 43 44 45 46 47 48 49 50
000
ASUS43 KLMK 020702
RWRKY
KENTUCKY REGIONAL WEATHER ROUNDUP
NATIONAL WEATHER SERVICE LOUISVILLE KY
300 AM EDT THU OCT 02 2014

NOTE "FAIR" INDICATES FEW OR NO CLOUDS BELOW 12,000 FEET
WITH NO SIGNIFICANT WEATHER AND/OR OBSTRUCTIONS TO VISIBILITY.

KYZ001>023-026-027-061>063-070>075-020800-
WESTERN AND SOUTH CENTRAL KENTUCKY

CITY           SKY/WX    TMP DP  RH WIND       PRES   REMARKS
PADUCAH        PTCLDY    70  60  70 S5        29.90R
HENDERSON      NOT AVBL
OWENSBORO      PTCLDY    66  57  72 CALM      29.95S
HOPKINSVILLE   CLEAR     69  62  77 SE7       29.95S
BOWLING GREEN  CLEAR     61  56  83 CALM      29.98S
GLASGOW        CLEAR     64  55  72 CALM      29.98S
$$

KYZ024-025-028>034-038-045-046-053-020800-
NORTH CENTRAL KENTUCKY

CITY           SKY/WX    TMP DP  RH WIND       PRES   REMARKS
LOUISVILLE/SDF PTCLDY    66  58  75 SE5       29.97S
LOUISVILLE/LOU CLEAR     66  58  75 CALM      29.98S
FORT KNOX      CLEAR     62  56  82 E5        29.97S
$$

KYZ035>037-039>044-047>052-055>060-089>105-020800-
NORTHEAST KENTUCKY

CITY           SKY/WX    TMP DP  RH WIND       PRES   REMARKS
LEXINGTON      CLEAR     65  58  78 SE7       30.01S
COVINGTON      CLEAR     61  52  72 E5        30.01R
FRANKFORT      CLEAR     61  57  87 CALM      29.99S
$$

KYZ054-064>069-076>088-106>120-020800-
SOUTHEAST KENTUCKY

CITY           SKY/WX    TMP DP  RH WIND       PRES   REMARKS
JACKSON        CLEAR     64  57  78 SE3       30.05S
LONDON         CLEAR     58  55  90 CALM      30.04S
SOMERSET       CLEAR     55  55 100 CALM      30.04S
MIDDLESBORO    CLEAR     53  53  98 CALM      30.08R
MONTICELLO     SUNNY     58  56  93 CALM      30.04S
$$



USA.gov is the U.S. government's official web portal to all federal, state and local government web resources and services.